{"data":{"norad_id":47901,"intl_designator":"2021-021AT","name":"STARLINK-2361","alt_names":[],"object_type":"PAYLOAD","status":"ACTIVE","operator":null,"country":"US","launch_date":"2021-03-14","launch_site_code":"AFETR","launch_vehicle":null,"mission":null,"orbit_class":"UNKNOWN","rcs_meters":null,"size_class":null,"mass_kg":null,"dimensions":null,"purposes":["comms"],"wikipedia_slug":null,"has_3d_model":false,"image_url":null,"decayed_at":null,"tle_current":{"epoch":"2026-09-20T01:34:48.766080Z","epoch_age_seconds":66743,"freshness":"FRESH","line1":"1 47901U 21021AT  26263.06584220  .00046191  00000+0  90300-3 0  9998","line2":"2 47901  53.1523  60.8632 0000263 251.6729 108.4251 15.47011778306348","mean_motion":15.47011778,"eccentricity":2.63e-5,"inclination_deg":53.1523,"raan_deg":60.8632,"arg_perigee_deg":251.6729,"mean_anomaly_deg":108.4251,"bstar":0.000903,"rev_number":30634,"period_min":93.082678521146,"perigee_km":425.29433255779,"apogee_km":425.65220245786,"semimajor_km":6803.6102675078,"source":"CELESTRAK","updated_at":"2026-09-20T09:00:38.757074Z"}}}